Location: Tierra del Sol
(32.6128°N, 116.3319°W)
Time: 19:58:38
(UTC-08:00)

Amateur Radio Satellites - All Passes

Search period start: 25 November 2014 19:28
Search period end: 26 November 2014 19:28
Location: Tierra del Sol, 32.6128°N, 116.3319°W

Satellite Date Start Highest point End Downlink Frequencies (MHz)
Time Altitude Azimuth
CUTE 1.7 & AOD 2 25 Nov 19:35:11 19:39:02 36° 73° (ENE) 19:42:55 437.475
PHONESAT 2.4 25 Nov 19:42:48 19:46:32 86° 27° (NNE) 19:50:14 2401.200-2431.200
BRITE-PL 25 Nov 19:43:07 19:48:05 50° 75° (ENE) 19:52:41 437.365/2234.400
PCSat 25 Nov 19:43:18 19:48:22 41° 300° (WNW) 19:53:29 145.827
HO-68 25 Nov 19:47:01 19:54:10 74° 73° (ENE) 20:01:20 435.675
AIST 2 25 Nov 19:50:33 19:54:40 60° 115° (ESE) 19:58:52 435.215
VERMONT LUNAR 25 Nov 19:55:15 19:58:47 51° 212° (SSW) 20:02:18 437.305
CUBESAT XI-V 25 Nov 19:55:17 19:57:09 12° 294° (WNW) 19:59:00 437.345
UKube-1 25 Nov 20:00:27 20:03:42 21° 69° (ENE) 20:06:58 .
SEEDS 25 Nov 20:08:10 20:12:21 83° 77° (ENE) 20:16:33 437.485
Oscar 11 25 Nov 20:11:21 20:15:06 30° 72° (ENE) 20:18:53 145.826/435.025
DOVE 4 25 Nov 20:13:12 20:17:48 55° 76° (ENE) 20:22:09 437.250
AAUSAT CUBESAT 2 25 Nov 20:25:32 20:29:40 82° 258° (WSW) 20:33:51 437.432
CUBEBUG 2 25 Nov 20:27:30 20:31:05 26° 72° (ENE) 20:34:37 437.445
UWE-3 25 Nov 20:28:28 20:31:49 23° 71° (ENE) 20:35:07 435.000/436.395/437.385
DELFI C3 25 Nov 20:32:11 20:36:03 44° 75° (ENE) 20:39:56 145.870
AIST 1 25 Nov 20:32:58 20:34:45 12° 286° (WNW) 20:36:33
DX 1 25 Nov 20:34:36 20:38:53 55° 74° (ENE) 20:43:10 434.975-435.025
CANX-2 25 Nov 20:36:23 20:40:10 32° 262° (W) 20:43:58 2200.000
COMPASS 1 25 Nov 20:40:54 20:44:51 44° 261° (W) 20:48:51 437.405
50 SAT 25 Nov 20:41:00 20:42:31 12° 68° (ENE) 20:44:03 437.505
BEESAT 3 25 Nov 20:42:07 20:44:39 16° 308° (NW) 20:47:12 437.485
GONETS M04 25 Nov 20:46:58 20:53:48 26° 276° (W) 21:00:37
HUMSAT D 25 Nov 20:49:11 20:52:09 19° 70° (ENE) 20:55:07 437.325/437.525
CINEMA 3 25 Nov 20:50:50 20:55:19 89° 77° (ENE) 20:59:38 145.822/145.860
GOMX 1 25 Nov 20:54:20 20:58:51 36° 261° (W) 21:03:07 467.674
BEESAT 2 25 Nov 20:58:18 21:00:02 12° 310° (NW) 21:01:48 435.950
ZACube-1 25 Nov 21:03:09 21:07:16 51° 75° (ENE) 21:11:19 437.345
VELOX 1 25 Nov 21:03:48 21:07:49 33° 72° (ENE) 21:11:50 145.980
ESTCUBE 1 25 Nov 21:04:20 21:05:57 12° 66° (ENE) 21:07:35 437.505/2401.250
CUTE 1.7 & AOD 2 25 Nov 21:12:55 21:15:04 14° 266° (W) 21:17:13 437.475
PHONESAT 2.4 25 Nov 21:22:46 21:24:58 15° 220° (SW) 21:27:10 2401.200-2431.200
BRITE-PL 25 Nov 21:24:04 21:26:40 14° 265° (W) 21:29:11 437.365/2234.400
AISAT 25 Nov 21:29:26 21:33:54 71° 76° (ENE) 21:38:22 437.250
AIST 2 25 Nov 21:32:05 21:33:40 12° 311° (NW) 21:35:17 435.215
UKube-1 25 Nov 21:36:00 21:39:41 27° 263° (W) 21:43:22 .
FUNcube-1 25 Nov 21:38:13 21:42:23 55° 260° (W) 21:46:29 145.935
HO-68 25 Nov 21:38:15 21:42:22 16° 267° (W) 21:46:30 435.675
NANOSAT C BR1 25 Nov 21:42:02 21:44:32 15° 94° (E) 21:47:02 145.865
CUBEBUG 1 25 Nov 21:43:34 21:47:30 32° 72° (ENE) 21:51:26 437.445
TIGRISAT 25 Nov 21:47:31 21:51:24 29° 98° (E) 21:55:21 435.000
Oscar 11 25 Nov 21:48:26 21:51:17 17° 265° (W) 21:54:09 145.826/435.025
JUGNU 25 Nov 21:50:03 21:52:36 13° 164° (SSE) 21:55:09 437.505
QB50P1 25 Nov 21:51:21 21:54:29 20° 96° (E) 21:57:37 145.935-145.965
DOVE 4 25 Nov 21:54:44 21:55:43 11° 266° (W) 21:56:42 437.250
UNISAT 6 25 Nov 22:00:47 22:05:02 43° 99° (E) 22:09:23 437.425
ISS 25 Nov 22:01:12 22:04:19 41° 132° (SE) 22:07:26 145.825
BUGSAT 1 25 Nov 22:02:51 22:06:00 22° 96° (E) 22:09:07 437.445
CUBEBUG 2 25 Nov 22:04:38 22:07:44 19° 264° (W) 22:10:48 437.445
UWE-3 25 Nov 22:04:55 22:08:15 22° 264° (W) 22:11:32 435.000/436.395/437.385
DELFI C3 25 Nov 22:10:58 22:11:32 10° 267° (W) 22:12:06 145.870
50 SAT 25 Nov 22:13:38 22:17:27 40° 261° (W) 22:21:15 437.505
POPSAT HIP 1 25 Nov 22:15:25 22:19:24 40° 99° (E) 22:23:22 437.405
HUMSAT D 25 Nov 22:24:21 22:27:47 25° 263° (W) 22:31:12 437.325/437.525
ANTELSAT 25 Nov 22:29:20 22:33:50 85° 283° (WNW) 22:38:25 437.575/2403.000
ESTCUBE 1 25 Nov 22:37:52 22:42:19 54° 260° (W) 22:46:47 437.505/2401.250
VELOX 1 25 Nov 22:41:29 22:44:26 17° 265° (W) 22:47:23 145.980
POLYITAN 1 25 Nov 22:48:43 22:52:56 73° 284° (WNW) 22:57:08 437.675
RS-15 25 Nov 22:50:26 22:58:12 20° 37° (NE) 23:06:07 29.354- 29.394
QB50P2 25 Nov 22:50:48 22:55:00 68° 284° (WNW) 22:59:12 145.880/145.840
DUCHIFAT 1 25 Nov 22:56:59 23:01:08 58° 285° (WNW) 23:05:15 145.980
TISAT 1 25 Nov 22:58:20 23:02:31 56° 75° (ENE) 23:06:42 437.305
AUBIESAT-1 25 Nov 23:01:08 23:02:58 13° 60° (ENE) 23:04:52 437.475
M-CUBED/EXP-1 PRIME 25 Nov 23:05:33 23:08:02 16° 62° (ENE) 23:10:39 437.505
SPROUT 25 Nov 23:07:43 23:11:59 63° 76° (ENE) 23:16:15 437.525
CUSAT 1 25 Nov 23:09:56 23:14:45 44° 82° (E) 23:21:04 437.405
NANOSAT C BR1 25 Nov 23:16:42 23:20:28 33° 287° (WNW) 23:24:14 145.865
CUBEBUG 1 25 Nov 23:20:51 23:23:53 18° 265° (W) 23:26:55 437.445
TIGRISAT 25 Nov 23:24:40 23:27:57 21° 290° (WNW) 23:31:16 435.000
QB50P1 25 Nov 23:26:51 23:30:18 25° 289° (WNW) 23:33:45 145.935-145.965
DANDE 25 Nov 23:35:09 23:39:59 65° 82° (E) 23:46:31 436.750
JUGNU 25 Nov 23:36:36 23:40:58 21° 173° (S) 23:45:21 437.505
BUGSAT 1 25 Nov 23:38:16 23:41:22 22° 290° (WNW) 23:44:28 437.445
ISS 25 Nov 23:38:55 23:41:05 16° 326° (NNW) 23:43:16 145.825
UNISAT 6 25 Nov 23:39:04 23:41:28 14° 292° (WNW) 23:43:53 437.425
ITUPSAT 1 25 Nov 23:42:59 23:46:48 24° 69° (ENE) 23:50:38 437.325
SRMSAT 25 Nov 23:47:53 23:51:24 16° 166° (SSE) 23:54:54 437.500
POPSAT HIP 1 25 Nov 23:52:56 23:54:55 13° 292° (WNW) 23:56:53 437.405
SWISSCUBE 25 Nov 23:53:23 23:57:41 34° 72° (ENE) 00:02:02 437.505
Oscar 19 26 Nov 00:21:56 00:25:51 22° 96° (E) 00:29:44 437.125/150
BEESAT 26 Nov 00:23:57 00:28:42 70° 75° (ENE) 00:33:29 436.000
AUBIESAT-1 26 Nov 00:33:42 00:37:26 44° 257° (WSW) 00:41:33 437.475
M-CUBED/EXP-1 PRIME 26 Nov 00:39:10 00:42:43 34° 259° (WSW) 00:46:36 437.505
KKS-1 26 Nov 00:52:12 00:55:50 25° 71° (ENE) 00:59:29 437.445
CUSAT 1 26 Nov 00:54:03 00:57:49 20° 266° (W) 01:02:17 437.405
RS-15 26 Nov 01:01:22 01:12:43 75° 61° (ENE) 01:24:34 29.354- 29.394
MaSat-1 26 Nov 01:09:56 01:11:38 17° 252° (WSW) 01:13:23 437.345
ITAMSAT 1 26 Nov 01:14:38 01:18:56 26° 97° (E) 01:23:12 435.822/435.867
ITUPSAT 1 26 Nov 01:20:24 01:24:30 28° 263° (W) 01:28:39 437.325
DANDE 26 Nov 01:21:23 01:23:27 12° 267° (W) 01:25:42 436.750
JUGNU 26 Nov 01:24:50 01:29:24 23° 183° (S) 01:33:59 437.505
SWISSCUBE 26 Nov 01:32:10 01:35:34 19° 265° (W) 01:39:00 437.505
SRMSAT 26 Nov 01:35:21 01:39:58 23° 176° (S) 01:44:34 437.500
Gurwin Techsat 1B 26 Nov 01:46:29 01:51:11 31° 97° (E) 01:55:50 435.225
STARS 26 Nov 01:47:07 01:51:30 75° 76° (ENE) 01:55:54 437.465
YUBILEINY 26 Nov 01:53:34 02:02:14 66° 92° (E) 02:10:54 435.215
Oscar 19 26 Nov 02:00:31 02:05:11 36° 289° (WNW) 02:09:52 437.125/150
HORYU 2 26 Nov 02:05:23 02:08:27 18° 95° (E) 02:11:30 437.375
KKS-1 26 Nov 02:28:52 02:32:23 23° 264° (W) 02:35:54 437.445
SO-50 26 Nov 02:51:46 02:56:12 73° 116° (ESE) 03:00:47 436.795
ITAMSAT 1 26 Nov 02:53:55 02:58:20 29° 290° (WNW) 03:02:44 435.822/435.867
JUGNU 26 Nov 03:14:16 03:17:49 16° 193° (SSW) 03:21:23 437.505
RS-15 26 Nov 03:15:34 03:24:02 25° 257° (WSW) 03:32:48 29.354- 29.394
AO-7 26 Nov 03:19:05 03:26:48 40° 100° (E) 03:34:28 29.400- 29.500
SRMSAT 26 Nov 03:24:05 03:28:34 22° 186° (S) 03:33:03 437.500
Gurwin Techsat 1B 26 Nov 03:26:38 03:30:57 26° 291° (WNW) 03:35:15 435.225
JAS-2 26 Nov 03:32:11 03:34:33 12° 87° (E) 03:36:50 435.910
MOZHAYETS 4 26 Nov 03:33:05 03:37:16 36° 73° (ENE) 03:41:29
HORYU 2 26 Nov 03:41:07 03:45:08 32° 288° (WNW) 03:49:08 437.375
BEESAT 2 26 Nov 03:44:45 03:45:26 10° 48° (NE) 03:46:08 435.950
YUBILEINY 26 Nov 03:53:10 03:59:36 22° 289° (WNW) 04:06:03 435.215
O/OREOS (USA 219) 26 Nov 04:07:40 04:09:08 11° 98° (E) 04:10:36 437.305
AIST 2 26 Nov 04:18:46 04:20:31 12° 49° (NE) 04:22:16 435.215
PCSat 26 Nov 04:35:23 04:40:45 60° 63° (ENE) 04:46:04 145.827
SO-50 26 Nov 04:35:45 04:37:17 12° 313° (NW) 04:38:50 436.795
PRISM 26 Nov 04:42:35 04:46:27 37° 73° (ENE) 04:50:22 437.425
BEESAT 3 26 Nov 05:04:23 05:08:35 87° 63° (ENE) 05:12:42 437.485
MOZHAYETS 4 26 Nov 05:11:40 05:14:33 17° 266° (W) 05:17:28
AO-7 26 Nov 05:11:52 05:19:25 40° 295° (WNW) 05:26:59 29.400- 29.500
JAS-2 26 Nov 05:13:35 05:20:31 80° 285° (WNW) 05:26:34 435.910
SRMSAT 26 Nov 05:14:17 05:17:07 14° 196° (SSW) 05:19:56 437.500
CUBESAT XI-V 26 Nov 05:14:56 05:19:05 31° 72° (ENE) 05:23:15 437.345
BEESAT 2 26 Nov 05:19:59 05:24:10 68° 244° (WSW) 05:28:16 435.950
Cubesat XI-IV 26 Nov 05:33:42 05:38:41 40° 99° (E) 05:43:38 437.490
O/OREOS (USA 219) 26 Nov 05:43:41 05:48:02 48° 292° (WNW) 05:52:22 437.305
STRAND 1 26 Nov 05:49:01 05:54:09 76° 76° (ENE) 05:59:18 437.568
AIST 2 26 Nov 05:55:18 05:59:31 58° 245° (WSW) 06:03:39 435.215
ISS 26 Nov 06:09:30 06:12:48 73° 44° (NE) 06:16:05 145.825
CUTE-I 26 Nov 06:14:48 06:20:07 79° 284° (WNW) 06:25:24 437.470
PRISM 26 Nov 06:20:03 06:22:07 13° 266° (W) 06:24:11 437.425
PCSat 26 Nov 06:20:52 06:23:33 14° 257° (WSW) 06:26:14 145.827
AIST 1 26 Nov 06:42:08 06:46:29 74° 265° (W) 06:50:47
CUBESAT XI-V 26 Nov 06:53:02 06:56:30 20° 265° (W) 07:00:00 437.345
JAS-2 26 Nov 07:02:35 07:04:10 11° 303° (WNW) 07:05:42 435.910
Cubesat XI-IV 26 Nov 07:14:35 07:18:26 21° 293° (WNW) 07:22:17 437.490
HO-68 26 Nov 07:21:54 07:26:14 17° 94° (E) 07:30:31 435.675
GONETS M04 26 Nov 07:43:39 07:52:23 74° 93° (E) 08:01:11
BRITE-PL 26 Nov 07:53:28 07:56:24 19° 96° (E) 07:59:23 437.365/2234.400
SEEDS 26 Nov 07:58:26 08:01:35 20° 95° (E) 08:04:43 437.485
AAUSAT CUBESAT 2 26 Nov 08:14:28 08:17:49 22° 96° (E) 08:21:09 437.432
DOVE 4 26 Nov 08:17:44 08:20:45 19° 96° (E) 08:23:50 437.250
CANX-2 26 Nov 08:26:01 08:30:16 58° 100° (E) 08:34:30 2200.000
DX 1 26 Nov 08:29:27 08:31:38 14° 94° (E) 08:33:48 434.975-435.025
COMPASS 1 26 Nov 08:29:27 08:33:27 40° 99° (E) 08:37:27 437.405
TIGRISAT 26 Nov 08:43:52 08:46:13 15° 68° (ENE) 08:48:34 435.000
CINEMA 3 26 Nov 08:50:40 08:54:20 28° 98° (E) 08:58:07 145.822/145.860
UNISAT 6 26 Nov 08:56:44 08:59:59 21° 70° (ENE) 09:03:13 437.425
ZACube-1 26 Nov 08:57:55 09:00:14 14° 94° (E) 09:02:34 437.345
GOMX 1 26 Nov 09:00:18 09:04:29 89° 282° (WNW) 09:08:49 467.674
CUTE 1.7 & AOD 2 26 Nov 09:00:40 09:04:53 56° 285° (WNW) 09:09:05 437.475
POPSAT HIP 1 26 Nov 09:05:16 09:08:11 18° 69° (ENE) 09:11:06 437.405
HO-68 26 Nov 09:07:16 09:14:24 71° 288° (WNW) 09:21:29 435.675
ANTELSAT 26 Nov 09:24:34 09:28:39 47° 74° (ENE) 09:32:45 437.575/2403.000
AISAT 26 Nov 09:26:22 09:29:33 19° 96° (E) 09:32:42 437.250
UKube-1 26 Nov 09:27:44 09:32:04 72° 102° (ESE) 09:36:22 .
FUNcube-1 26 Nov 09:31:26 09:35:23 37° 99° (E) 09:39:24 145.935
BRITE-PL 26 Nov 09:31:29 09:34:54 25° 288° (WNW) 09:38:23 437.365/2234.400
SEEDS 26 Nov 09:33:47 09:37:21 26° 288° (WNW) 09:40:55 437.485
POLYITAN 1 26 Nov 09:37:45 09:41:49 46° 74° (ENE) 09:45:53 437.675
Oscar 11 26 Nov 09:38:45 09:43:05 68° 284° (WNW) 09:47:24 145.826/435.025
QB50P2 26 Nov 09:39:34 09:43:40 48° 75° (ENE) 09:47:46 145.880/145.840
GONETS M04 26 Nov 09:44:02 09:49:57 20° 290° (WNW) 09:55:56
DUCHIFAT 1 26 Nov 09:45:17 09:49:27 56° 75° (ENE) 09:53:36 145.980
AAUSAT CUBESAT 2 26 Nov 09:50:01 09:53:22 23° 289° (WNW) 09:56:42 437.432
DELFI C3 26 Nov 09:52:39 09:56:41 51° 285° (WNW) 10:00:41 145.870
DOVE 4 26 Nov 09:54:57 09:58:29 27° 288° (WNW) 10:02:07 437.250
UWE-3 26 Nov 09:58:16 10:02:32 83° 283° (WNW) 10:06:55 435.000/436.395/437.385
CUBEBUG 2 26 Nov 09:58:53 10:03:08 69° 283° (WNW) 10:07:29 437.445
50 SAT 26 Nov 09:59:05 10:02:52 37° 99° (E) 10:06:39 437.505
DX 1 26 Nov 10:03:57 10:07:59 39° 287° (WNW) 10:12:00 434.975-435.025
NANOSAT C BR1 26 Nov 10:04:39 10:08:55 81° 258° (WSW) 10:13:11 145.865
COMPASS 1 26 Nov 10:06:42 10:08:48 14° 292° (WNW) 10:10:54 437.405
HUMSAT D 26 Nov 10:12:40 10:16:51 71° 101° (ESE) 10:21:04 437.325/437.525
QB50P1 26 Nov 10:14:41 10:18:54 60° 259° (W) 10:23:06 145.935-145.965
TIGRISAT 26 Nov 10:18:43 10:22:39 36° 261° (W) 10:26:35 435.000
BUGSAT 1 26 Nov 10:23:05 10:27:17 58° 259° (W) 10:31:28 437.445
CINEMA 3 26 Nov 10:28:20 10:31:22 19° 289° (WNW) 10:34:27 145.822/145.860
ZACube-1 26 Nov 10:32:46 10:36:41 36° 286° (WNW) 10:40:40 437.345
UNISAT 6 26 Nov 10:33:09 10:36:38 24° 263° (W) 10:40:06 437.425
VELOX 1 26 Nov 10:35:21 10:39:42 61° 285° (WNW) 10:44:02 145.980
ESTCUBE 1 26 Nov 10:35:29 10:39:49 44° 99° (E) 10:44:07 437.505/2401.250
POPSAT HIP 1 26 Nov 10:40:08 10:43:51 29° 262° (W) 10:47:34 437.405
TISAT 1 26 Nov 10:50:03 10:51:55 13° 94° (E) 10:53:47 437.305
HO-68 26 Nov 10:59:52 11:00:49 10° 304° (NW) 11:01:46 435.675
SPROUT 26 Nov 11:00:37 11:03:11 16° 94° (E) 11:05:45 437.525
AISAT 26 Nov 11:02:21 11:06:09 29° 289° (WNW) 11:09:57 437.250
ANTELSAT 26 Nov 11:04:45 11:05:40 11° 267° (W) 11:06:36 437.575/2403.000
FUNcube-1 26 Nov 11:09:02 11:11:25 15° 291° (WNW) 11:13:50 145.935
CUBEBUG 1 26 Nov 11:13:07 11:17:26 66° 284° (WNW) 11:21:43 437.445
POLYITAN 1 26 Nov 11:16:43 11:17:57 11° 267° (W) 11:19:11 437.675
QB50P2 26 Nov 11:19:00 11:19:47 10° 267° (W) 11:20:35 145.880/145.840
SO-50 26 Nov 11:28:12 11:31:58 22° 52° (NE) 11:35:44 436.795
Oscar 19 26 Nov 11:34:55 11:38:35 20° 68° (ENE) 11:42:15 437.125/150
50 SAT 26 Nov 11:35:51 11:37:49 13° 292° (WNW) 11:39:48 437.505
SWISSCUBE 26 Nov 12:00:19 12:02:25 13° 93° (E) 12:04:29 437.505
YUBILEINY 26 Nov 12:10:34 12:17:25 25° 72° (ENE) 12:24:12 435.215
ESTCUBE 1 26 Nov 12:13:56 12:16:16 14° 293° (WNW) 12:18:35 437.505/2401.250
CUSAT 1 26 Nov 12:20:24 12:23:15 67° 97° (E) 12:25:50 437.405
AUBIESAT-1 26 Nov 12:21:02 12:25:01 25° 100° (E) 12:28:51 437.475
TISAT 1 26 Nov 12:23:58 12:27:53 39° 287° (WNW) 12:31:47 437.305
M-CUBED/EXP-1 PRIME 26 Nov 12:26:20 12:30:42 31° 101° (E) 12:34:54 437.505
ITAMSAT 1 26 Nov 12:28:24 12:32:41 26° 69° (ENE) 12:36:57 435.822/435.867
BEESAT 26 Nov 12:29:37 12:33:37 26° 97° (E) 12:37:34 436.000
PHONESAT 2.4 26 Nov 12:34:29 12:37:23 22° 143° (SE) 12:40:17 2401.200-2431.200
SPROUT 26 Nov 12:35:29 12:39:20 33° 287° (WNW) 12:43:09 437.525
VERMONT LUNAR 26 Nov 12:42:56 12:46:18 38° 147° (SSE) 12:49:41 437.305
DANDE 26 Nov 12:48:38 12:51:31 44° 278° (W) 12:54:04 436.750
Gurwin Techsat 1B 26 Nov 13:03:14 13:07:54 32° 70° (ENE) 13:12:35 435.225
SO-50 26 Nov 13:08:05 13:12:37 39° 247° (WSW) 13:17:08 436.795
Oscar 19 26 Nov 13:12:53 13:17:36 38° 261° (W) 13:22:21 437.125/150
RS-15 26 Nov 13:15:22 13:19:11 12° 99° (E) 13:22:58 29.354- 29.394
ITUPSAT 1 26 Nov 13:25:00 13:29:48 76° 284° (WNW) 13:34:34 437.325
SWISSCUBE 26 Nov 13:35:52 13:40:30 51° 286° (WNW) 13:45:06 437.505
STARS 26 Nov 13:42:46 13:46:00 20° 96° (E) 13:49:12 437.465
AUBIESAT-1 26 Nov 13:55:39 13:59:54 30° 294° (WNW) 14:04:02 437.475
M-CUBED/EXP-1 PRIME 26 Nov 14:01:32 14:05:30 25° 295° (WNW) 14:09:22 437.505
YUBILEINY 26 Nov 14:06:09 14:14:35 58° 269° (W) 14:22:59 435.215
BEESAT 26 Nov 14:07:24 14:11:19 26° 290° (WNW) 14:15:13 436.000
ITAMSAT 1 26 Nov 14:07:27 14:11:59 30° 262° (W) 14:16:33 435.822/435.867
PHONESAT 2.4 26 Nov 14:12:17 14:15:57 64° 336° (NNW) 14:19:39 2401.200-2431.200
AO-7 26 Nov 14:13:24 14:20:44 37° 64° (ENE) 14:28:06 29.400- 29.500
O/OREOS (USA 219) 26 Nov 14:21:07 14:22:43 12° 59° (ENE) 14:24:19 437.305
VERMONT LUNAR 26 Nov 14:21:19 14:24:46 41° 341° (NNW) 14:28:13 437.305
KKS-1 26 Nov 14:23:39 14:28:05 83° 283° (WNW) 14:32:31 437.445
MaSat-1 26 Nov 14:33:08 14:36:07 44° 293° (WNW) 14:38:50 437.345
HORYU 2 26 Nov 14:34:49 14:39:11 61° 259° (W) 14:43:34 437.375
Gurwin Techsat 1B 26 Nov 14:43:31 14:47:49 25° 264° (W) 14:52:08 435.225
RS-15 26 Nov 15:18:41 15:29:41 77° 114° (ESE) 15:40:34 29.354- 29.394
STARS 26 Nov 15:18:42 15:22:26 28° 289° (WNW) 15:26:10 437.465
JAS-2 26 Nov 15:19:01 15:25:32 33° 66° (ENE) 15:32:15 435.910
MOZHAYETS 4 26 Nov 15:34:44 15:36:46 13° 93° (E) 15:38:48
PHONESAT 2.4 26 Nov 15:52:01 15:55:10 25° 353° (N) 15:58:18 2401.200-2431.200
CUTE-I 26 Nov 15:56:26 15:58:05 11° 63° (ENE) 15:59:44 437.470
O/OREOS (USA 219) 26 Nov 15:58:03 16:02:25 53° 254° (WSW) 16:06:47 437.305
VERMONT LUNAR 26 Nov 16:00:52 16:03:47 23° 358° (N) 16:06:43 437.305
AO-7 26 Nov 16:05:35 16:13:17 43° 259° (W) 16:21:04 29.400- 29.500
Cubesat XI-IV 26 Nov 16:51:16 16:56:19 43° 72° (ENE) 17:01:22 437.490
JAS-2 26 Nov 17:03:00 17:10:08 47° 262° (W) 17:17:39 435.910
MOZHAYETS 4 26 Nov 17:09:43 17:14:12 48° 286° (WNW) 17:18:39
CUBESAT XI-V 26 Nov 17:18:58 17:20:06 11° 92° (E) 17:21:14 437.345
PHONESAT 2.4 26 Nov 17:31:25 17:34:38 27° 10° (N) 17:37:51 2401.200-2431.200
CUTE-I 26 Nov 17:32:06 17:37:27 76° 257° (WSW) 17:42:49 437.470
PCSat 26 Nov 17:32:06 17:34:52 14° 104° (ESE) 17:37:39 145.827
RS-15 26 Nov 17:34:12 17:43:05 28° 316° (NW) 17:52:03 29.354- 29.394
VERMONT LUNAR 26 Nov 17:39:35 17:42:54 32° 15° (NNE) 17:46:12 437.305
GONETS M04 26 Nov 18:00:33 18:07:56 29° 74° (ENE) 18:15:12
STRAND 1 26 Nov 18:04:35 18:09:17 37° 99° (E) 18:13:57 437.568
PRISM 26 Nov 18:05:31 18:09:43 64° 285° (WNW) 18:13:52 437.425
Cubesat XI-IV 26 Nov 18:32:49 18:36:31 19° 265° (W) 18:40:14 437.490
CUBESAT XI-V 26 Nov 18:53:17 18:57:50 55° 285° (WNW) 19:02:20 437.345
BEESAT 3 26 Nov 18:55:09 18:59:05 50° 114° (ESE) 19:03:06 437.485
BRITE-PL 26 Nov 19:00:27 19:03:38 17° 70° (ENE) 19:06:40 437.365/2234.400
AIST 1 26 Nov 19:06:44 19:11:07 82° 95° (E) 19:15:33
PHONESAT 2.4 26 Nov 19:10:03 19:13:46 79° 26° (NNE) 19:17:28 2401.200-2431.200
BEESAT 2 26 Nov 19:11:09 19:15:12 72° 116° (ESE) 19:19:21 435.950
PCSat 26 Nov 19:12:24 19:17:42 58° 297° (WNW) 19:23:03 145.827
CANX-2 26 Nov 19:15:35 19:18:55 23° 71° (ENE) 19:22:16 2200.000
VERMONT LUNAR 26 Nov 19:17:56 19:21:32 62° 210° (SSW) 19:25:06 437.305
COMPASS 1 26 Nov 19:18:16 19:20:50 16° 69° (ENE) 19:23:24 437.405
DOVE 4 26 Nov 19:20:45 19:22:53 13° 69° (ENE) 19:24:58 437.250
